Simultaneous Nadir Overpasses (SNOs) Predictions

Prediction of SNOs between GOES-15 and LANDSAT-8 Satellite Orbit:

Table of predicted SNOs for the next 14.0 days since TLE Epoch: 3/16/2024
Index Date Time (GOES-15) GOES-15 Lat,Lon LANDSAT-8 Lat,Lon Distance(km) Time Diff (sec)
1 03/16/2024 06:14:37 -0.04, 61.23 0.44, 59.10 242.84 80
2 03/18/2024 06:05:05 -0.04, 61.23 -0.23, 62.05 93.38 80
3 03/18/2024 18:26:29 0.05, 61.17 -0.87, 56.85 491.46 80
4 03/20/2024 05:52:52 -0.05, 61.23 -0.85, 65.01 429.64 80
5 03/20/2024 18:14:16 0.05, 61.18 -0.24, 59.81 155.30 80
6 03/22/2024 17:59:23 0.05, 61.18 0.40, 62.77 181.04 80
7 03/23/2024 06:20:37 -0.06, 61.24 0.69, 57.61 411.46 80
8 03/25/2024 06:08:23 -0.06, 61.24 0.09, 60.58 75.02 80
9 03/27/2024 05:58:50 -0.06, 61.25 -0.53, 63.55 261.03 80
10 03/27/2024 18:20:13 0.06, 61.19 -0.55, 58.35 323.25 80
11 03/29/2024 18:05:19 0.07, 61.21 0.09, 61.31 11.85 80
